User: anonymous   Login
Location: Unspecified
(0.0000°N, 0.0000°E)
Time: 19:33:06
(UTC+00:00)
Language:

Tansei-3 - Orbit

View from above orbital plane
View from above orbital plane
View from above satellite
View from above satellite

Ground track
Ground track

The orbit data is extracted from the following two-line orbital elements,

1  9841U 77012A   19340.55978353 -.00000047 +00000-0 -25576-4 0  9993
2  9841 065.7535 128.7400 1734912 215.7737 131.3848 10.73823079677655
Epoch (UTC): 06 December 2019 13:26:05
Eccentricity: 0.1734912
inclination: 65.7535°
perigee height: 795 km
apogee height: 3806 km
right ascension of ascending node: 128.7400°
argument of perigee: 215.7737°
revolutions per day: 10.73823079
mean anomaly at epoch: 131.3848°
orbit number at epoch: 67765

The dashed part of the orbit path shows where the satellite is in the earth's shadow,  

DLR